Volver al catálogo

STARLINK-36203

ActivoComunicacionesVLEO
NORAD 67214·PAYLOAD·🇺🇸 United States

Lanzado Dec 17, 2025 desde Vandenberg Space Force Base

Loading…

Próximos Pases (próximas 24 horas)

TLE

ActualizadoSource: CelesTrak SupGP

Época: Sep 14, 2026, 20:54 UTC

1 67214C 25304Y   26257.87131944  .00039573  00000+0  33164-2 0  2575
2 67214  70.0011  57.6355 0003005 273.4955 235.3075 14.98310813    19

Sigue STARLINK-36203 en tiempo real con AllMySat

Download on the App Store